EW3511 Weather Reports


Display with metric or nautical units.
time (UTC)temp
F
wind
direction
speed
MPH
gust
MPH
rain 1hr
in
rain 24hr
in
rain mn
in
humidity
%
barometer
mb
20260503211049 60 0.0 0.0 0.00 0.00 0.00 59 1012.1
20260503210051 61 0.0 0.0 0.00 0.00 0.00 57 1012.1
20260503205050 62 0.0 0.0 0.00 0.00 0.00 56 1012.0
20260503204111 62 0.0 0.0 0.00 0.00 0.00 55 1012.0
20260503203052 63 0.0 0.0 0.00 0.00 0.00 54 1011.8
20260503202053 64 0.0 0.0 0.00 0.00 0.00 53 1011.9
20260503201112 64 0.0 1.0 0.00 0.00 0.00 53 1011.8
20260503200113 64 155 0.0 1.0 0.00 0.00 0.00 54 1011.7
20260503195053 64 0.0 0.0 0.00 0.00 0.00 53 1011.7
20260503194054 64 0.0 0.0 0.00 0.00 0.00 52 1011.7
20260503193054 66 0.0 0.0 0.00 0.00 0.00 50 1011.6
20260503192114 66 93 0.0 1.0 0.00 0.00 0.00 50 1011.6
20260503191055 67 0.0 1.0 0.00 0.00 0.00 49 1011.5
20260503190056 67 142 1.0 2.0 0.00 0.00 0.00 49 1011.4
20260503185057 67 90 1.0 2.0 0.00 0.00 0.00 50 1011.4
20260503184056 68 83 0.0 1.0 0.00 0.00 0.00 49 1011.1
20260503183057 68 87 1.0 2.0 0.00 0.00 0.00 49 1011.0
20260503182057 68 0.0 0.0 0.00 0.00 0.00 50 1010.9
20260503181118 70 90 0.0 2.0 0.00 0.00 0.00 45 1010.8
20260503180058 71 67 1.0 3.0 0.00 0.00 0.00 44 1010.6
20260503175118 71 62 1.0 3.0 0.00 0.00 0.00 46 1010.6
20260503174059 72 80 0.0 2.0 0.00 0.00 0.00 45 1010.5
20260503173119 72 82 1.0 2.0 0.00 0.00 0.00 46 1010.5
20260503172059 74 50 1.0 7.0 0.00 0.00 0.00 42 1010.6
20260503171101 76 4 2.0 6.0 0.00 0.00 0.00 39 1010.5
20260503160123 80 68 1.0 2.0 0.00 0.00 0.00 36 1010.2
20260503131058 80 0 2.0 7.0 0.00 0.00 0.00 31 1011.6
20260503090108 72 139 0.0 1.0 0.00 0.00 0.00 45 1014.8
20260503081050 68 116 2.0 3.0 0.00 0.00 0.00 48 1015.2
20260503080110 68 93 1.0 5.0 0.00 0.00 0.00 47 1015.2
20260503072052 66 157 1.0 2.0 0.00 0.00 0.00 50 1015.3
20260503071053 65 121 1.0 3.0 0.00 0.00 0.00 50 1015.2
20260503060116 59 0.0 0.0 0.00 0.00 0.00 62 1015.3
20260503055056 60 0.0 0.0 0.00 0.00 0.00 60 1015.3
20260503054057 54 0.0 0.0 0.00 0.00 0.00 68 1015.2
20260503053058 51 0.0 0.0 0.00 0.00 0.00 74 1015.2
20260503052117 50 93 0.0 1.0 0.00 0.00 0.00 75 1015.4
20260503051118 48 0.0 0.0 0.00 0.00 0.00 78 1015.3
20260503050138 50 0.0 0.0 0.00 0.00 0.00 76 1015.4
20260503045058 48 0.0 0.0 0.00 0.00 0.00 79 1015.4
20260503044059 46 122 0.0 1.0 0.00 0.00 0.00 82 1015.3
20260503043101 44 0.0 0.0 0.00 0.00 0.00 87 1015.2
20260503042032 43 0.0 0.0 0.00 0.00 0.00 89 1015.2
20260503041032 42 0.0 0.0 0.00 0.00 0.00 89 1015.2
20260503040036 42 0.0 0.0 0.00 0.00 0.00 89 1015.1
20260503035033 42 0.0 0.0 0.00 0.00 0.00 89 1015.1
20260503034054 42 0.0 0.0 0.00 0.00 0.00 89 1015.2
20260503033034 42 0.0 0.0 0.00 0.00 0.00 88 1015.1
20260503032035 42 0.0 0.0 0.00 0.00 0.00 89 1015.2
20260503031035 42 0.0 0.0 0.00 0.00 0.00 88 1015.1
20260503030035 43 93 0.0 1.0 0.00 0.00 0.00 87 1015.1
20260503025035 43 0.0 0.0 0.00 0.00 0.00 87 1015.0
20260503024056 43 0.0 0.0 0.00 0.00 0.00 87 1015.0
20260503023036 44 0.0 0.0 0.00 0.00 0.00 85 1015.1
20260503022037 43 72 0.0 1.0 0.00 0.00 0.00 87 1015.1
20260503021037 44 87 0.0 1.0 0.00 0.00 0.00 85 1015.1
20260503020118 44 0.0 0.0 0.00 0.00 0.00 85 1015.2
20260503015038 44 0.0 0.0 0.00 0.00 0.00 84 1015.2
20260503014039 44 87 0.0 1.0 0.00 0.00 0.00 84 1015.3
20260503013039 44 0.0 0.0 0.00 0.00 0.00 83 1015.2
20260503012039 44 0.0 0.0 0.00 0.00 0.00 83 1015.2
20260503011039 45 0.0 0.0 0.00 0.00 0.00 83 1015.4
20260503010100 45 0.0 0.0 0.00 0.00 0.00 81 1015.4
20260503005041 45 85 0.0 1.0 0.00 0.00 0.00 81 1015.5
20260503004041 45 0.0 0.0 0.00 0.00 0.00 82 1015.5
20260503003042 46 0.0 0.0 0.00 0.00 0.00 80 1015.4
20260503002042 47 0.0 0.0 0.00 0.00 0.00 79 1015.6
20260503001043 46 0.0 0.0 0.00 0.00 0.00 79 1015.7
20260503000043 47 0.0 0.0 0.00 0.00 0.00 78 1015.8
20260502235103 47 0.0 0.0 0.00 0.00 0.00 78 1015.8
20260502234104 48 0.0 0.0 0.00 0.00 0.00 78 1015.9
20260502233044 47 0.0 0.0 0.00 0.00 0.00 78 1016.1
20260502232044 48 0.0 0.0 0.00 0.00 0.00 77 1016.2
20260502231044 48 0.0 0.0 0.00 0.00 0.00 78 1016.2
20260502230045 48 0.0 0.0 0.00 0.00 0.00 77 1016.2
20260502225047 49 0.0 0.0 0.00 0.00 0.00 75 1016.2
20260502224046 48 0.0 0.0 0.00 0.00 0.00 75 1016.3
20260502223046 49 0.0 0.0 0.00 0.00 0.00 73 1016.4
20260502222048 50 0.0 1.0 0.00 0.00 0.00 71 1016.5
20260502221047 51 0.0 0.0 0.00 0.00 0.00 70 1016.5
20260502220049 51 0.0 0.0 0.00 0.00 0.00 70 1016.5
20260502215109 52 0.0 0.0 0.00 0.00 0.00 69 1016.5
20260502214048 52 0.0 0.0 0.00 0.00 0.00 69 1016.6
20260502213049 52 0.0 0.0 0.00 0.00 0.00 70 1016.5
20260502212049 53 0.0 0.0 0.00 0.00 0.00 67 1016.5